QPF
0.01 0.01 0.00 0.00 0.00 0.00 0.00 0.00 0.00 0.00 0.00 0.00 0.00 0.00 0.00 0.00 0.00 0.00 0.00 0.00 0.00 0.00 0.00 0.00 0.00 0.00 0.00 0.00 0.00 0.01 0.02 0.03 0.04 0.04 0.04 0.05 0.06 0.07 0.07 0.05 0.04 0.05 0.04 0.03
0.01 0.01 0.00 0.00 0.00 0.01 0.01 0.01 0.00 0.00 0.00 0.00 0.00 0.00 0.00 0.00 0.00 0.00 0.00 0.00 0.00 0.00 0.00 0.00 0.00 0.00 0.00 0.00 0.00 0.01 0.01 0.02 0.03 0.03 0.04 0.04 0.04 0.05 0.06 0.05 0.04 0.04 0.03 0.02
0.01 0.00 0.00 0.00 0.00 0.01 0.01 0.01 0.00 0.00 0.00 0.00 0.00 0.00 0.00 0.00 0.00 0.00 0.00 0.00 0.00 0.00 0.00 0.00 0.00 0.00 0.00 0.00 0.00 0.00 0.01 0.01 0.02 0.03 0.04 0.04 0.04 0.04 0.05 0.05 0.04 0.03 0.03 0.03
0.02 0.01 0.00 0.00 0.00 0.01 0.01 0.00 0.00 0.01 0.01 0.01 0.00 0.01 0.00 0.00 0.00 0.00 0.00 0.00 0.00 0.00 0.00 0.00 0.00 0.00 0.00 0.00 0.00 0.00 0.01 0.01 0.01 0.02 0.03 0.03 0.03 0.03 0.04 0.03 0.03 0.03 0.03 0.03
0.02 0.01 0.01 0.01 0.00 0.00 0.01 0.00 0.01 0.01 0.01 0.02 0.01 0.01 0.00 0.00 0.00 0.00 0.00 0.00 0.00 0.00 0.00 0.00 0.00 0.00 0.00 0.00 0.00 0.00 0.01 0.01 0.02 0.02 0.02 0.03 0.03 0.02 0.03 0.04 0.03 0.02 0.02 0.02
0.01 0.01 0.01 0.01 0.01 0.00 0.01 0.01 0.01 0.01 0.03 0.03 0.01 0.00 0.00 0.00 0.00 0.00 0.00 0.00 0.00 0.00 0.00 0.00 0.00 0.00 0.00 0.00 0.01 0.01 0.01 0.02 0.03 0.03 0.02 0.03 0.03 0.03 0.02 0.03 0.04 0.03 0.02 0.02
0.01 0.01 0.01 0.01 0.01 0.01 0.01 0.02 0.03 0.03 0.03 0.01 0.00 0.00 0.00 0.00 0.00 0.00 0.00 0.00 0.00 0.00 0.00 0.00 0.00 0.00 0.00 0.00 0.01 0.01 0.02 0.02 0.03 0.04 0.03 0.03 0.03 0.03 0.03 0.03 0.03 0.02 0.02 0.01
0.01 0.01 0.00 0.00 0.01 0.01 0.02 0.02 0.03 0.02 0.01 0.00 0.00 0.01 0.00 0.00 0.00 0.00 0.00 0.00 0.00 0.00 0.00 0.00 0.00 0.00 0.00 0.00 0.00 0.01 0.01 0.01 0.03 0.03 0.03 0.03 0.03 0.03 0.03 0.04 0.04 0.03 0.02 0.01
0.01 0.01 0.00 0.00 0.01 0.01 0.02 0.03 0.03 0.03 0.02 0.01 0.00 0.00 0.00 0.00 0.00 0.00 0.00 0.00 0.00 0.00 0.00 0.00 0.00 0.00 0.00 0.00 0.00 0.00 0.01 0.01 0.02 0.03 0.03 0.03 0.03 0.03 0.03 0.03 0.04 0.05 0.03 0.01
0.01 0.01 0.00 0.00 0.01 0.01 0.02 0.03 0.04 0.04 0.04 0.02 0.01 0.00 0.01 0.01 0.01 0.00 0.00 0.00 0.00 0.00 0.00 0.00 0.00 0.00 0.00 0.00 0.00 0.00 0.01 0.01 0.02 0.02 0.04 0.05 0.04 0.03 0.03 0.03 0.04 0.04 0.04 0.02
0.00 0.01 0.00 0.00 0.01 0.01 0.01 0.01 0.02 0.03 0.02 0.02 0.01 0.01 0.01 0.01 0.01 0.01 0.01 0.01 0.01 0.00 0.00 0.00 0.00 0.00 0.00 0.00 0.00 0.00 0.00 0.00 0.01 0.02 0.02 0.04 0.05 0.04 0.04 0.04 0.04 0.04 0.04 0.03
0.01 0.02 0.01 0.00 0.00 0.00 0.01 0.01 0.01 0.02 0.02 0.01 0.01 0.01 0.02 0.01 0.01 0.01 0.01 0.01 0.01 0.01 0.00 0.00 0.00 0.00 0.00 0.00 0.00 0.00 0.00 0.00 0.01 0.02 0.03 0.03 0.03 0.04 0.05 0.05 0.04 0.04 0.03 0.03
0.02 0.03 0.02 0.01 0.01 0.02 0.02 0.02 0.02 0.03 0.03 0.02 0.01 0.00 0.01 0.01 0.01 0.01 0.01 0.01 0.01 0.01 0.00 0.00 0.00 0.00 0.00 0.00 0.00 0.00 0.00 0.00 0.00 0.01 0.02 0.02 0.02 0.03 0.03 0.03 0.03 0.03 0.03 0.03
0.01 0.01 0.01 0.01 0.02 0.02 0.02 0.01 0.01 0.02 0.03 0.02 0.01 0.00 0.00 0.01 0.01 0.01 0.01 0.01 0.01 0.01 0.01 0.00 0.00 0.00 0.00 0.00 0.00 0.00 0.00 0.00 0.00 0.00 0.01 0.01 0.01 0.01 0.02 0.02 0.02 0.03 0.03 0.03
0.01 0.01 0.00 0.00 0.00 0.00 0.00 0.00 0.00 0.00 0.01 0.01 0.00 0.00 0.00 0.00 0.00 0.01 0.01 0.01 0.01 0.01 0.01 0.01 0.00 0.00 0.00 0.00 0.00 0.00 0.00 0.00 0.00 0.00 0.00 0.01 0.01 0.01 0.01 0.01 0.02 0.02 0.03 0.02
0.01 0.01 0.01 0.00 0.00 0.00 0.00 0.00 0.00 0.00 0.00 0.00 0.00 0.00 0.00 0.00 0.00 0.00 0.00 0.01 0.01 0.01 0.01 0.01 0.01 0.01 0.00 0.00 0.00 0.00 0.00 0.00 0.00 0.00 0.00 0.00 0.01 0.01 0.01 0.01 0.01 0.02 0.03 0.03
0.01 0.01 0.01 0.01 0.00 0.00 0.00 0.00 0.00 0.00 0.00 0.00 0.00 0.00 0.00 0.00 0.00 0.00 0.01 0.01 0.01 0.01 0.01 0.01 0.01 0.01 0.01 0.01 0.01 0.00 0.00 0.00 0.00 0.00 0.01 0.01 0.01 0.00 0.00 0.01 0.01 0.01 0.02 0.03
0.01 0.02 0.02 0.01 0.01 0.01 0.00 0.00 0.00 0.00 0.00 0.00 0.00 0.00 0.00 0.00 0.00 0.00 0.01 0.01 0.01 0.01 0.01 0.01 0.01 0.01 0.01 0.01 0.01 0.01 0.00 0.00 0.00 0.00 0.01 0.01 0.01 0.01 0.01 0.01 0.01 0.01 0.01 0.02
0.01 0.02 0.03 0.02 0.01 0.00 0.00 0.00 0.00 0.00 0.00 0.00 0.00 0.00 0.00 0.00 0.00 0.00 0.00 0.01 0.01 0.01 0.01 0.01 0.01 0.01 0.01 0.01 0.01 0.01 0.00 0.00 0.00 0.00 0.01 0.01 0.01 0.02 0.01 0.01 0.01 0.01 0.01 0.01
0.02 0.02 0.03 0.02 0.02 0.01 0.00 0.00 0.00 0.00 0.01 0.00 0.00 0.00 0.00 0.00 0.00 0.00 0.00 0.00 0.01 0.01 0.01 0.01 0.01 0.01 0.01 0.01 0.01 0.01 0.01 0.01 0.01 0.01 0.01 0.01 0.01 0.01 0.01 0.01 0.01 0.01 0.01 0.01
0.03 0.03 0.03 0.02 0.02 0.01 0.00 0.00 0.00 0.01 0.01 0.00 0.00 0.00 0.00 0.00 0.00 0.00 0.00 0.00 0.00 0.01 0.01 0.01 0.01 0.01 0.01 0.01 0.01 0.01 0.01 0.01 0.01 0.01 0.01 0.01 0.01 0.01 0.01 0.01 0.01 0.01 0.01 0.01
0.01 0.01 0.01 0.01 0.02 0.01 0.00 0.00 0.01 0.01 0.00 0.00 0.00 0.00 0.00 0.00 0.00 0.00 0.00 0.00 0.00 0.00 0.00 0.01 0.01 0.01 0.01 0.01 0.02 0.02 0.02 0.02 0.02 0.01 0.01 0.01 0.01 0.01 0.01 0.01 0.01 0.02 0.02 0.02
0.00 0.01 0.01 0.01 0.01 0.00 0.01 0.01 0.01 0.00 0.00 0.00 0.00 0.00 0.00 0.01 0.01 0.01 0.00 0.00 0.00 0.00 0.01 0.01 0.01 0.01 0.01 0.01 0.03 0.04 0.02 0.02 0.02 0.02 0.02 0.02 0.02 0.02 0.02 0.02 0.02 0.02 0.02 0.02
0.00 0.00 0.01 0.01 0.01 0.01 0.01 0.01 0.01 0.01 0.01 0.01 0.00 0.01 0.01 0.01 0.01 0.01 0.01 0.00 0.00 0.00 0.01 0.01 0.01 0.01 0.01 0.01 0.03 0.06 0.03 0.02 0.02 0.02 0.02 0.02 0.02 0.02 0.02 0.03 0.03 0.02 0.02 0.02
0.01 0.01 0.01 0.01 0.01 0.01 0.01 0.01 0.01 0.01 0.01 0.01 0.01 0.01 0.01 0.01 0.01 0.01 0.01 0.00 0.00 0.00 0.01 0.01 0.01 0.01 0.01 0.01 0.03 0.05 0.03 0.02 0.02 0.02 0.02 0.02 0.02 0.02 0.02 0.03 0.03 0.03 0.03 0.03
0.01 0.01 0.01 0.01 0.01 0.02 0.01 0.01 0.01 0.01 0.01 0.01 0.01 0.01 0.01 0.01 0.01 0.01 0.01 0.01 0.01 0.01 0.01 0.01 0.01 0.01 0.01 0.01 0.02 0.05 0.03 0.02 0.02 0.02 0.02 0.02 0.02 0.02 0.03 0.03 0.03 0.03 0.03 0.03
MSLP
1018.03 1018.13 1018.29 1018.51 1018.73 1018.92 1019.01 1018.97 1018.78 1018.47 1018.08 1017.70 1017.39 1017.22 1017.23 1017.42 1017.72 1018.07 1018.34 1018.44 1018.31 1017.90 1017.25 1016.43 1015.57 1014.79 1014.23 1013.98 1014.10 1014.60 1015.42 1016.47 1017.64 1018.81 1019.91 1020.85 1021.61 1022.18 1022.59 1022.89 1023.10 1023.26 1023.40 1023.53
1017.75 1017.85 1018.03 1018.26 1018.50 1018.70 1018.80 1018.75 1018.56 1018.24 1017.87 1017.52 1017.28 1017.22 1017.38 1017.74 1018.23 1018.76 1019.20 1019.44 1019.39 1019.03 1018.36 1017.48 1016.51 1015.59 1014.88 1014.47 1014.43 1014.78 1015.49 1016.45 1017.56 1018.71 1019.80 1020.77 1021.56 1022.18 1022.64 1022.98 1023.22 1023.41 1023.55 1023.66
1017.58 1017.68 1017.85 1018.08 1018.31 1018.49 1018.56 1018.48 1018.27 1017.95 1017.59 1017.30 1017.15 1017.21 1017.52 1018.05 1018.73 1019.43 1020.04 1020.42 1020.49 1020.19 1019.55 1018.66 1017.63 1016.63 1015.81 1015.27 1015.09 1015.29 1015.85 1016.68 1017.68 1018.74 1019.77 1020.70 1021.50 1022.14 1022.64 1023.02 1023.30 1023.52 1023.68 1023.79
1017.51 1017.61 1017.78 1017.99 1018.18 1018.30 1018.32 1018.20 1017.96 1017.64 1017.31 1017.08 1017.03 1017.23 1017.68 1018.38 1019.22 1020.09 1020.84 1021.35 1021.52 1021.31 1020.73 1019.86 1018.85 1017.82 1016.94 1016.31 1016.02 1016.08 1016.47 1017.13 1017.97 1018.88 1019.79 1020.64 1021.39 1022.02 1022.53 1022.95 1023.28 1023.54 1023.74 1023.88
1017.51 1017.63 1017.78 1017.95 1018.09 1018.15 1018.11 1017.94 1017.67 1017.36 1017.09 1016.94 1017.00 1017.33 1017.93 1018.76 1019.74 1020.73 1021.59 1022.19 1022.45 1022.32 1021.82 1021.03 1020.06 1019.07 1018.19 1017.51 1017.13 1017.06 1017.29 1017.75 1018.38 1019.10 1019.84 1020.55 1021.21 1021.79 1022.31 1022.75 1023.14 1023.45 1023.71 1023.89
1017.54 1017.67 1017.81 1017.94 1018.02 1018.02 1017.91 1017.71 1017.43 1017.15 1016.94 1016.89 1017.08 1017.53 1018.26 1019.22 1020.29 1021.36 1022.28 1022.95 1023.27 1023.21 1022.79 1022.09 1021.21 1020.29 1019.45 1018.78 1018.34 1018.16 1018.22 1018.48 1018.88 1019.36 1019.89 1020.43 1020.96 1021.47 1021.96 1022.43 1022.86 1023.25 1023.58 1023.83
1017.54 1017.68 1017.81 1017.90 1017.92 1017.86 1017.71 1017.47 1017.21 1016.98 1016.86 1016.93 1017.25 1017.84 1018.69 1019.73 1020.86 1021.97 1022.92 1023.61 1023.96 1023.96 1023.62 1023.01 1022.25 1021.43 1020.66 1020.02 1019.55 1019.27 1019.18 1019.24 1019.40 1019.65 1019.94 1020.28 1020.66 1021.08 1021.53 1022.01 1022.49 1022.95 1023.36 1023.70
1017.50 1017.65 1017.76 1017.81 1017.78 1017.66 1017.46 1017.22 1016.98 1016.82 1016.81 1017.01 1017.47 1018.19 1019.14 1020.25 1021.43 1022.54 1023.48 1024.16 1024.53 1024.56 1024.29 1023.78 1023.13 1022.43 1021.75 1021.16 1020.69 1020.34 1020.12 1019.98 1019.93 1019.93 1020.00 1020.14 1020.36 1020.67 1021.07 1021.54 1022.06 1022.59 1023.08 1023.50
1017.45 1017.59 1017.67 1017.66 1017.57 1017.40 1017.16 1016.91 1016.71 1016.63 1016.72 1017.06 1017.65 1018.50 1019.55 1020.72 1021.92 1023.03 1023.95 1024.61 1024.97 1025.03 1024.82 1024.40 1023.87 1023.28 1022.70 1022.18 1021.72 1021.32 1020.99 1020.70 1020.44 1020.23 1020.09 1020.04 1020.10 1020.30 1020.64 1021.09 1021.63 1022.20 1022.76 1023.25
1017.45 1017.55 1017.58 1017.51 1017.34 1017.10 1016.81 1016.55 1016.37 1016.36 1016.55 1017.01 1017.73 1018.69 1019.83 1021.06 1022.28 1023.38 1024.29 1024.93 1025.29 1025.37 1025.22 1024.89 1024.47 1023.99 1023.51 1023.05 1022.62 1022.20 1021.78 1021.37 1020.95 1020.57 1020.25 1020.03 1019.95 1020.04 1020.30 1020.72 1021.24 1021.83 1022.42 1022.95
1017.59 1017.63 1017.58 1017.41 1017.15 1016.82 1016.47 1016.17 1015.99 1016.01 1016.29 1016.84 1017.66 1018.72 1019.94 1021.23 1022.47 1023.58 1024.48 1025.13 1025.50 1025.62 1025.53 1025.29 1024.96 1024.59 1024.20 1023.81 1023.40 1022.98 1022.52 1022.01 1021.49 1020.97 1020.51 1020.16 1019.95 1019.93 1020.11 1020.46 1020.94 1021.50 1022.07 1022.61
1017.96 1017.91 1017.75 1017.47 1017.09 1016.64 1016.20 1015.83 1015.63 1015.65 1015.96 1016.57 1017.47 1018.60 1019.88 1021.23 1022.51 1023.65 1024.57 1025.24 1025.64 1025.81 1025.79 1025.64 1025.40 1025.11 1024.81 1024.48 1024.11 1023.69 1023.21 1022.66 1022.07 1021.47 1020.91 1020.46 1020.14 1020.02 1020.09 1020.34 1020.73 1021.22 1021.73 1022.23
1018.59 1018.43 1018.15 1017.74 1017.22 1016.65 1016.09 1015.63 1015.36 1015.35 1015.66 1016.29 1017.23 1018.40 1019.74 1021.13 1022.45 1023.63 1024.60 1025.31 1025.77 1026.01 1026.06 1025.98 1025.82 1025.62 1025.38 1025.11 1024.78 1024.38 1023.90 1023.34 1022.71 1022.07 1021.46 1020.92 1020.52 1020.29 1020.24 1020.37 1020.64 1021.00 1021.41 1021.82
1019.48 1019.21 1018.80 1018.25 1017.59 1016.87 1016.19 1015.62 1015.27 1015.21 1015.48 1016.10 1017.04 1018.24 1019.60 1021.03 1022.40 1023.62 1024.64 1025.41 1025.94 1026.25 1026.38 1026.37 1026.29 1026.14 1025.96 1025.72 1025.43 1025.06 1024.60 1024.05 1023.43 1022.77 1022.13 1021.55 1021.07 1020.74 1020.56 1020.54 1020.65 1020.86 1021.13 1021.41
1020.54 1020.17 1019.63 1018.96 1018.17 1017.33 1016.53 1015.86 1015.42 1015.29 1015.51 1016.10 1017.02 1018.22 1019.59 1021.03 1022.43 1023.70 1024.78 1025.61 1026.21 1026.58 1026.78 1026.84 1026.80 1026.70 1026.56 1026.35 1026.09 1025.75 1025.31 1024.79 1024.19 1023.55 1022.90 1022.29 1021.75 1021.32 1021.02 1020.84 1020.78 1020.81 1020.90 1021.04
1021.67 1021.20 1020.57 1019.79 1018.90 1017.96 1017.06 1016.31 1015.81 1015.62 1015.79 1016.34 1017.24 1018.41 1019.77 1021.22 1022.64 1023.94 1025.05 1025.93 1026.59 1027.02 1027.27 1027.38 1027.38 1027.31 1027.19 1027.01 1026.76 1026.45 1026.05 1025.56 1025.00 1024.39 1023.75 1023.12 1022.53 1022.01 1021.58 1021.25 1021.01 1020.86 1020.77 1020.75
1022.72 1022.18 1021.48 1020.62 1019.66 1018.66 1017.72 1016.93 1016.39 1016.17 1016.31 1016.83 1017.69 1018.83 1020.17 1021.60 1023.02 1024.33 1025.46 1026.38 1027.07 1027.55 1027.83 1027.97 1028.00 1027.96 1027.84 1027.68 1027.45 1027.16 1026.79 1026.34 1025.82 1025.24 1024.62 1023.98 1023.36 1022.76 1022.22 1021.75 1021.35 1021.02 1020.76 1020.59
1023.57 1022.98 1022.22 1021.33 1020.34 1019.33 1018.39 1017.60 1017.07 1016.85 1016.99 1017.49 1018.33 1019.44 1020.75 1022.15 1023.54 1024.83 1025.97 1026.90 1027.61 1028.11 1028.43 1028.59 1028.64 1028.61 1028.51 1028.36 1028.14 1027.87 1027.53 1027.12 1026.64 1026.09 1025.49 1024.85 1024.20 1023.55 1022.92 1022.33 1021.78 1021.30 1020.90 1020.57
1024.13 1023.50 1022.72 1021.81 1020.84 1019.86 1018.95 1018.22 1017.73 1017.55 1017.71 1018.22 1019.04 1020.13 1021.39 1022.75 1024.10 1025.37 1026.48 1027.41 1028.13 1028.65 1028.99 1029.18 1029.26 1029.25 1029.17 1029.03 1028.84 1028.59 1028.28 1027.90 1027.44 1026.92 1026.33 1025.70 1025.03 1024.34 1023.64 1022.96 1022.31 1021.71 1021.18 1020.73
1024.37 1023.71 1022.92 1022.03 1021.09 1020.17 1019.35 1018.69 1018.28 1018.16 1018.37 1018.90 1019.72 1020.77 1022.00 1023.30 1024.60 1025.83 1026.91 1027.82 1028.55 1029.09 1029.47 1029.70 1029.82 1029.85 1029.80 1029.70 1029.55 1029.33 1029.04 1028.68 1028.24 1027.74 1027.16 1026.52 1025.84 1025.12 1024.38 1023.64 1022.91 1022.23 1021.60 1021.05
1024.33 1023.64 1022.85 1021.99 1021.11 1020.27 1019.54 1018.98 1018.67 1018.63 1018.89 1019.44 1020.26 1021.29 1022.46 1023.71 1024.96 1026.13 1027.19 1028.09 1028.83 1029.40 1029.83 1030.12 1030.30 1030.40 1030.42 1030.37 1030.26 1030.08 1029.82 1029.48 1029.05 1028.55 1027.97 1027.32 1026.62 1025.88 1025.12 1024.34 1023.57 1022.84 1022.14 1021.51
1024.04 1023.34 1022.57 1021.75 1020.93 1020.19 1019.56 1019.11 1018.89 1018.94 1019.25 1019.83 1020.64 1021.63 1022.76 1023.94 1025.13 1026.26 1027.28 1028.18 1028.95 1029.57 1030.06 1030.44 1030.72 1030.91 1031.02 1031.05 1031.00 1030.86 1030.63 1030.30 1029.88 1029.37 1028.78 1028.11 1027.40 1026.64 1025.85 1025.06 1024.27 1023.50 1022.77 1022.08
1023.59 1022.89 1022.14 1021.37 1020.64 1019.99 1019.47 1019.13 1019.01 1019.12 1019.48 1020.07 1020.87 1021.82 1022.89 1024.01 1025.13 1026.22 1027.22 1028.13 1028.93 1029.62 1030.20 1030.68 1031.08 1031.38 1031.60 1031.72 1031.75 1031.67 1031.47 1031.15 1030.73 1030.20 1029.59 1028.90 1028.16 1027.38 1026.58 1025.77 1024.98 1024.20 1023.45 1022.72
1023.03 1022.34 1021.64 1020.94 1020.31 1019.76 1019.35 1019.12 1019.09 1019.27 1019.66 1020.25 1021.02 1021.93 1022.93 1023.98 1025.04 1026.08 1027.07 1027.98 1028.82 1029.58 1030.26 1030.86 1031.38 1031.81 1032.15 1032.38 1032.49 1032.47 1032.31 1032.01 1031.58 1031.04 1030.40 1029.68 1028.91 1028.11 1027.30 1026.49 1025.69 1024.91 1024.15 1023.41
1022.39 1021.75 1021.11 1020.51 1019.98 1019.56 1019.27 1019.14 1019.20 1019.43 1019.85 1020.44 1021.18 1022.03 1022.96 1023.94 1024.94 1025.93 1026.89 1027.81 1028.69 1029.52 1030.29 1031.00 1031.64 1032.20 1032.65 1032.98 1033.18 1033.22 1033.10 1032.83 1032.40 1031.85 1031.18 1030.44 1029.65 1028.83 1028.00 1027.19 1026.39 1025.61 1024.85 1024.10
1021.69 1021.11 1020.56 1020.08 1019.68 1019.40 1019.24 1019.23 1019.37 1019.67 1020.12 1020.70 1021.40 1022.19 1023.06 1023.96 1024.89 1025.83 1026.76 1027.68 1028.58 1029.46 1030.30 1031.10 1031.84 1032.49 1033.05 1033.47 1033.75 1033.86 1033.79 1033.54 1033.13 1032.57 1031.91 1031.15 1030.34 1029.51 1028.68 1027.86 1027.07 1026.29 1025.53 1024.77
Thickness
5522 5527 5529 5530 5528 5530 5529 5529 5530 5527 5520 5521 5529 5535 5538 5536 5532 5533 5534 5533 5532 5532 5530 5528 5527 5527 5528 5528 5529 5529 5529 5529 5530 5530 5530 5530 5530 5530 5529 5529 5528 5528 5529 5528
5515 5515 5517 5514 5512 5513 5515 5517 5519 5515 5510 5512 5521 5529 5534 5532 5530 5529 5528 5528 5527 5525 5523 5520 5519 5519 5519 5520 5519 5520 5520 5520 5520 5520 5520 5520 5520 5519 5519 5519 5518 5518 5519 5518
5511 5507 5504 5504 5505 5506 5507 5511 5511 5508 5503 5503 5510 5533 5534 5530 5524 5521 5521 5520 5519 5518 5517 5514 5512 5511 5510 5510 5510 5510 5510 5510 5510 5510 5510 5509 5509 5509 5510 5509 5509 5508 5508 5508
5495 5492 5492 5496 5497 5499 5502 5499 5496 5494 5500 5508 5503 5526 5539 5527 5521 5518 5516 5515 5513 5511 5509 5507 5505 5503 5502 5500 5499 5499 5499 5499 5500 5500 5500 5501 5502 5502 5501 5500 5499 5498 5498 5498
5487 5482 5484 5487 5488 5486 5489 5486 5487 5488 5489 5492 5494 5502 5536 5516 5520 5519 5513 5509 5506 5503 5500 5498 5496 5494 5492 5490 5489 5489 5489 5489 5489 5489 5490 5491 5491 5491 5490 5489 5489 5489 5488 5488
5472 5468 5471 5474 5473 5474 5473 5476 5477 5478 5482 5488 5495 5497 5527 5522 5517 5514 5506 5500 5496 5492 5490 5488 5485 5483 5481 5480 5479 5479 5479 5478 5478 5478 5479 5479 5480 5480 5479 5479 5479 5479 5479 5478
5466 5464 5461 5462 5466 5465 5468 5475 5481 5484 5485 5499 5481 5484 5512 5512 5501 5497 5494 5490 5486 5482 5480 5478 5476 5474 5472 5471 5470 5469 5469 5468 5467 5467 5468 5468 5468 5468 5469 5469 5469 5469 5469 5469
5463 5466 5457 5454 5459 5461 5462 5469 5479 5486 5491 5496 5468 5484 5506 5490 5482 5478 5477 5476 5474 5472 5470 5467 5465 5464 5462 5460 5460 5459 5459 5458 5457 5457 5456 5456 5456 5457 5458 5458 5458 5458 5458 5458
5461 5458 5443 5442 5442 5449 5452 5457 5457 5459 5444 5459 5484 5485 5489 5478 5474 5469 5467 5467 5466 5463 5460 5457 5454 5452 5451 5450 5449 5448 5448 5448 5447 5446 5445 5444 5444 5445 5445 5446 5446 5446 5447 5446
5442 5437 5434 5431 5433 5433 5439 5442 5443 5450 5457 5469 5480 5481 5492 5480 5474 5467 5462 5460 5458 5453 5449 5447 5444 5442 5439 5439 5438 5437 5437 5436 5435 5434 5433 5433 5432 5432 5433 5433 5434 5435 5435 5435
5426 5426 5423 5423 5426 5434 5427 5428 5434 5439 5441 5459 5469 5489 5485 5475 5467 5461 5455 5450 5446 5442 5439 5436 5433 5431 5428 5427 5427 5426 5425 5424 5423 5422 5422 5421 5421 5420 5420 5421 5422 5423 5423 5424
5414 5419 5418 5418 5412 5410 5419 5425 5427 5435 5428 5431 5451 5473 5462 5456 5452 5446 5443 5438 5433 5429 5426 5423 5421 5418 5417 5415 5414 5414 5413 5412 5411 5410 5410 5410 5409 5408 5408 5409 5409 5410 5411 5412
5401 5404 5412 5417 5406 5395 5399 5403 5404 5408 5416 5421 5437 5462 5447 5440 5438 5434 5430 5427 5421 5416 5414 5411 5409 5406 5404 5403 5402 5400 5400 5400 5399 5398 5398 5398 5397 5396 5396 5396 5397 5397 5399 5399
5394 5392 5405 5423 5424 5406 5395 5393 5392 5397 5410 5418 5428 5448 5445 5438 5434 5430 5422 5415 5410 5405 5401 5399 5397 5395 5393 5390 5389 5388 5387 5386 5386 5386 5386 5385 5384 5383 5383 5383 5384 5385 5386 5387
5381 5382 5373 5380 5381 5383 5388 5388 5385 5387 5403 5411 5426 5424 5435 5432 5423 5417 5410 5402 5397 5394 5392 5389 5387 5385 5382 5379 5377 5375 5374 5374 5373 5373 5374 5373 5371 5370 5370 5370 5371 5372 5373 5374
5365 5366 5357 5358 5362 5364 5369 5380 5382 5382 5389 5394 5400 5409 5420 5413 5406 5400 5395 5388 5386 5385 5383 5380 5376 5373 5370 5368 5365 5363 5362 5361 5361 5361 5361 5360 5358 5357 5357 5357 5357 5358 5360 5361
5354 5350 5357 5366 5345 5352 5373 5385 5381 5381 5385 5390 5397 5410 5404 5398 5394 5389 5385 5380 5377 5375 5372 5369 5366 5363 5360 5357 5353 5351 5350 5349 5348 5348 5348 5347 5346 5345 5344 5344 5344 5345 5346 5347
5342 5342 5344 5345 5341 5363 5401 5384 5383 5379 5382 5381 5384 5387 5384 5383 5378 5372 5369 5368 5366 5363 5360 5358 5355 5351 5348 5344 5341 5339 5338 5337 5336 5336 5335 5334 5333 5333 5332 5332 5332 5333 5334 5335
5338 5336 5334 5334 5348 5366 5376 5370 5365 5365 5376 5374 5370 5371 5370 5361 5361 5366 5359 5355 5353 5350 5346 5343 5340 5337 5334 5331 5328 5327 5325 5324 5324 5323 5322 5321 5320 5320 5320 5321 5321 5321 5322 5323
5322 5324 5328 5323 5338 5354 5383 5361 5354 5358 5368 5370 5361 5360 5355 5349 5363 5371 5350 5342 5338 5335 5331 5328 5325 5322 5320 5318 5315 5314 5313 5312 5311 5310 5309 5308 5308 5308 5308 5309 5309 5310 5310 5312
5311 5312 5317 5321 5331 5352 5359 5341 5343 5357 5374 5358 5352 5350 5344 5345 5350 5344 5332 5328 5324 5320 5317 5314 5311 5309 5307 5304 5302 5301 5300 5299 5297 5296 5296 5296 5296 5295 5296 5296 5296 5297 5298 5299
5320 5315 5311 5313 5318 5345 5338 5330 5343 5356 5347 5341 5339 5337 5333 5331 5327 5322 5318 5314 5310 5307 5304 5301 5299 5296 5293 5290 5288 5287 5286 5285 5283 5282 5283 5283 5283 5283 5284 5283 5284 5284 5285 5287
5320 5327 5328 5326 5341 5339 5327 5331 5330 5327 5327 5326 5325 5321 5319 5316 5314 5310 5306 5302 5298 5295 5291 5287 5284 5282 5279 5276 5274 5273 5272 5270 5268 5268 5268 5269 5269 5270 5270 5271 5272 5272 5273 5275
5305 5300 5307 5309 5322 5320 5315 5313 5311 5309 5309 5309 5306 5304 5303 5302 5301 5297 5293 5289 5285 5281 5277 5273 5269 5268 5266 5263 5260 5258 5257 5255 5255 5255 5255 5255 5255 5257 5257 5258 5259 5260 5262 5264
5304 5291 5295 5299 5306 5304 5306 5303 5301 5298 5294 5291 5290 5287 5287 5287 5286 5284 5280 5276 5273 5268 5263 5259 5256 5255 5253 5250 5247 5245 5243 5242 5243 5243 5243 5243 5243 5244 5245 5246 5247 5248 5250 5251
5288 5286 5295 5310 5301 5297 5303 5293 5287 5283 5280 5277 5275 5274 5272 5271 5271 5268 5265 5261 5257 5253 5249 5245 5242 5240 5239 5236 5234 5232 5230 5230 5230 5232 5232 5232 5232 5232 5233 5234 5236 5237 5238 5239